Weather Roundup
Issued by NWS Springfield, MO

Home | Current Version | Previous Version | Text Only | Print | Product List | Glossary On
Versions: 1 2 3 4 5 6 7 8 9 10 11 12 13 14 15 16 17 18 19 20 21 22 23 24 25 26 27 28 29 30 31 32 33 34 35 36 37 38 39 40 41 42 43 44 45 46 47 48 49 50
000
NZUS99 KSGF 012159
HRRSGF

HOURLY WEATHER
NATIONAL WEATHER SERVICE SPRINGFIELD MO
500 PM CDT WED APR 01 2015

......SGF CWA......

CITY           SKY/WX    TMP DP  RH WIND       PRES   REMARKS
SPRINGFIELD    CLOUDY    63  60  90 SE15      29.84F
JOPLIN         MOSUNNY   70  61  73 SE8       29.80F
WEST PLAINS    CLOUDY    65  57  75 S12       29.94S
ROLLA          LGT RAIN  64  51  62 S9        29.89F
OSAGE BEACH    CLOUDY    61  55  82 S12       29.92R
BRANSON        TSTM      63  61  94 E8        29.89R

......SURROUNDING SGF CWA......

CITY           SKY/WX    TMP DP  RH WIND       PRES   REMARKS
CHANUTE        SUNNY     76  60  57 S18       29.74F
PARSONS        SUNNY     79  61  53 S10       29.74F
COFFEYVILLE    SUNNY     80  60  50 S18       29.73F
EMPORIA        SUNNY     80  55  42 S21       29.67F
SILOAM SPRINGS CLOUDY    75  57  53 S13       29.84F
HARRISON AR    TSTM      64  64 100 VRB5G21     N/A  VSB 1/2
NEAR YELLVILLE CLOUDY    66  61  82 SE9       29.88F

......KANSAS AND MISSOURI......

CITY           SKY/WX    TMP DP  RH WIND       PRES   REMARKS
KANSAS CTY INT MOSUNNY   78  53  41 S24G30    29.73S
DOWNTOWN KC    LGT RAIN  77  53  43 S24G33    29.75S
COLUMBIA       CLOUDY    73  44  35 S14G31    29.85F
SEDALIA        CLOUDY    66  56  70 S24G32    29.83F
ST JOSEPH      MOSUNNY   78  53  41 S23G31    29.69F
ST LOUIS       PTSUNNY   77  38  24 SE20G29   29.91F
SPIRIT OF STL  PTSUNNY   75  38  26 S9G18     29.88F
KIRKSVILLE     MOSUNNY   78  45  30 S22G31    29.79F
WICHITA        MOSUNNY   86  53  32 S26G36    29.62F
TOPEKA         SUNNY     79  53  40 S22G31    29.68F
OLATHE         MOSUNNY   72  55  55 S23G38    29.75F

......TENNESSEE......

CITY           SKY/WX    TMP DP  RH WIND       PRES   REMARKS
MEMPHIS        CLOUDY    77  62  59 SW15G21   29.94R
NASHVILLE      PTSUNNY   75  28  17 SE5       30.02F

......ARKANSAS.......

CITY           SKY/WX    TMP DP  RH WIND       PRES   REMARKS
FAYETTEVILLE   CLOUDY    73  59  61 S15G21    29.84F
FT SMITH       LGT RAIN  75  60  59 S5        29.83F
LITTLE ROCK    CLOUDY    79  63  57 SE10      29.88F

......OKLAHOMA.......

CITY           SKY/WX    TMP DP  RH WIND       PRES   REMARKS
TULSA          MOSUNNY   81  57  43 S21G29    29.74F
PONCA CITY     SUNNY     86  53  32 S9G23     29.67F
MCALESTER      CLOUDY    76  62  62 S10G22    29.80F
OKLAHOMA CITY  MOSUNNY   80  61  52 S22G30    29.73F

......IOWA............

CITY           SKY/WX    TMP DP  RH WIND       PRES   REMARKS
DES MOINES     MOSUNNY   82  41  23 S29G38    29.67F
QUAD CITIES    SUNNY     78  32  18 S21G32    29.79F

......ILLINOIS........

CITY           SKY/WX    TMP DP  RH WIND       PRES   REMARKS
QUINCY         MOSUNNY   74  35  24 S18G29    29.84F
CHICAGO        PTSUNNY   72  35  25 S18       29.88F



USA.gov is the U.S. government's official web portal to all federal, state and local government web resources and services.